Stündliche Wetter Bolshie Klyuchi

Heute, 21 April, Mittwoch

Zeit Temperatur Niederschläge Wind Luftdruck Luftfeuchtigkeit
00:00 0°C° 0 mm 5 m/S 757 mmHg 56%
01:00 0°C° 0 mm 5 m/S 757 mmHg 56%
02:00 0°C° 0 mm 5 m/S 757 mmHg 56%
03:00 -2°C° 0 mm 6 m/S 756 mmHg 55%
04:00 -1°C° 0 mm 6 m/S 756 mmHg 54%
05:00 -1°C° 0 mm 7 m/S 755 mmHg 52%
06:00 0°C° 0 mm 8 m/S 755 mmHg 50%
07:00 +1°C° 0 mm 8 m/S 755 mmHg 48%
08:00 +2°C° 0 mm 9 m/S 754 mmHg 46%
09:00 +2°C° 0 mm 9 m/S 754 mmHg 44%
10:00 +2°C° 0.1 mm 9 m/S 754 mmHg 48%
11:00 +2°C° 0.1 mm 9 m/S 754 mmHg 53%
12:00 +1°C° 0.1 mm 9 m/S 753 mmHg 57%
13:00 +1°C° 0.4 mm 9 m/S 753 mmHg 63%
14:00 0°C° 0.4 mm 10 m/S 753 mmHg 68%
15:00 0°C° 0.4 mm 10 m/S 753 mmHg 73%
16:00 -1°C° 1 mm 9 m/S 752 mmHg 80%
17:00 -1°C° 1 mm 9 m/S 752 mmHg 86%
18:00 -3°C° 1 mm 9 m/S 752 mmHg 93%
19:00 -3°C° 0.7 mm 9 m/S 752 mmHg 94%
20:00 -2°C° 0.7 mm 8 m/S 751 mmHg 95%
21:00 -2°C° 0.7 mm 8 m/S 751 mmHg 96%
22:00 -2°C° 0.1 mm 8 m/S 751 mmHg 96%
23:00 -1°C° 0.1 mm 8 m/S 751 mmHg 96%

Morgen, 22 April, Donnerstag

Zeit Temperatur Niederschläge Wind Luftdruck Luftfeuchtigkeit
00:00 -1°C° 0.1 mm 8 m/S 751 mmHg 96%
01:00 -1°C° 0.1 mm 8 m/S 751 mmHg 96%
02:00 -1°C° 0.1 mm 7 m/S 751 mmHg 96%
03:00 -1°C° 0.1 mm 7 m/S 751 mmHg 96%
04:00 0°C° 0 mm 7 m/S 751 mmHg 96%
05:00 0°C° 0 mm 7 m/S 751 mmHg 95%
06:00 0°C° 0 mm 7 m/S 752 mmHg 95%
07:00 +2°C° 0 mm 6 m/S 752 mmHg 94%
08:00 +2°C° 0 mm 6 m/S 752 mmHg 94%
09:00 +3°C° 0 mm 5 m/S 753 mmHg 93%
10:00 +5°C° 0 mm 5 m/S 753 mmHg 90%
11:00 +5°C° 0 mm 6 m/S 753 mmHg 87%
12:00 +7°C° 0 mm 6 m/S 753 mmHg 84%
13:00 +7°C° 0 mm 6 m/S 753 mmHg 82%
14:00 +7°C° 0 mm 6 m/S 753 mmHg 81%
15:00 +8°C° 0 mm 6 m/S 753 mmHg 80%
16:00 +7°C° 0 mm 6 m/S 753 mmHg 82%
17:00 +7°C° 0 mm 6 m/S 753 mmHg 84%
18:00 +5°C° 0 mm 6 m/S 753 mmHg 86%
19:00 +5°C° 0.6 mm 6 m/S 753 mmHg 88%
20:00 +5°C° 0.6 mm 6 m/S 753 mmHg 90%
21:00 +5°C° 0.6 mm 5 m/S 753 mmHg 92%
22:00 +5°C° 0 mm 5 m/S 754 mmHg 93%
23:00 +3°C° 0 mm 5 m/S 754 mmHg 95%

übermorgen, 23 April, Freitag

Zeit Temperatur Niederschläge Wind Luftdruck Luftfeuchtigkeit
00:00 +4°C° 0 mm 4 m/S 754 mmHg 96%
01:00 +4°C° 0 mm 4 m/S 754 mmHg 96%
02:00 +3°C° 0 mm 3 m/S 754 mmHg 96%
03:00 +4°C° 0 mm 2 m/S 754 mmHg 97%
04:00 +4°C° 0 mm 2 m/S 755 mmHg 96%
05:00 +4°C° 0 mm 2 m/S 755 mmHg 95%
06:00 +5°C° 0 mm 2 m/S 755 mmHg 94%
07:00 +6°C° 0 mm 2 m/S 755 mmHg 90%
08:00 +7°C° 0 mm 3 m/S 755 mmHg 86%
09:00 +8°C° 0 mm 3 m/S 756 mmHg 82%
10:00 +9°C° 0.1 mm 3 m/S 756 mmHg 75%
11:00 +10°C° 0.1 mm 3 m/S 755 mmHg 68%
12:00 +12°C° 0.1 mm 2 m/S 755 mmHg 61%
13:00 +12°C° 0 mm 2 m/S 755 mmHg 60%
14:00 +12°C° 0 mm 2 m/S 755 mmHg 59%
15:00 +12°C° 0 mm 2 m/S 755 mmHg 58%
16:00 +12°C° 0 mm 2 m/S 755 mmHg 62%
17:00 +10°C° 0 mm 2 m/S 755 mmHg 66%
18:00 +10°C° 0 mm 3 m/S 755 mmHg 70%
19:00 +9°C° 0 mm 3 m/S 755 mmHg 77%
20:00 +7°C° 0 mm 3 m/S 755 mmHg 84%
21:00 +5°C° 0 mm 3 m/S 755 mmHg 91%
22:00 +5°C° 0 mm 3 m/S 754 mmHg 90%
23:00 +5°C° 0 mm 3 m/S 754 mmHg 89%

24 April, Samstag

Zeit Temperatur Niederschläge Wind Luftdruck Luftfeuchtigkeit
00:00 +5°C° 0 mm 3 m/S 754 mmHg 88%
01:00 +5°C° 0 mm 3 m/S 754 mmHg 89%
02:00 +5°C° 0 mm 3 m/S 753 mmHg 90%
03:00 +5°C° 0 mm 3 m/S 753 mmHg 90%
04:00 +5°C° 0 mm 4 m/S 753 mmHg 89%
05:00 +5°C° 0 mm 4 m/S 753 mmHg 88%
06:00 +5°C° 0 mm 4 m/S 752 mmHg 87%
07:00 +5°C° 0 mm 4 m/S 752 mmHg 83%
08:00 +6°C° 0 mm 4 m/S 752 mmHg 78%
09:00 +7°C° 0 mm 5 m/S 751 mmHg 73%
10:00 +7°C° 0 mm 5 m/S 750 mmHg 70%
11:00 +8°C° 0 mm 5 m/S 750 mmHg 68%
12:00 +8°C° 0 mm 5 m/S 749 mmHg 66%
13:00 +8°C° 0 mm 4 m/S 749 mmHg 71%
14:00 +7°C° 0 mm 4 m/S 749 mmHg 76%
15:00 +7°C° 0 mm 4 m/S 748 mmHg 81%
16:00 +6°C° 0 mm 4 m/S 748 mmHg 85%
17:00 +7°C° 0 mm 3 m/S 748 mmHg 88%
18:00 +5°C° 0 mm 3 m/S 747 mmHg 92%
19:00 +5°C° 0 mm 3 m/S 747 mmHg 93%
20:00 +6°C° 0 mm 2 m/S 747 mmHg 94%
21:00 +5°C° 0 mm 2 m/S 746 mmHg 96%
22:00 +5°C° 0 mm 2 m/S 746 mmHg 96%
23:00 +5°C° 0 mm 2 m/S 745 mmHg 96%

25 April, Sonntag

Zeit Temperatur Niederschläge Wind Luftdruck Luftfeuchtigkeit
00:00 +5°C° 0 mm 2 m/S 745 mmHg 97%
01:00 +5°C° 0 mm 2 m/S 744 mmHg 97%
02:00 +5°C° 0 mm 2 m/S 744 mmHg 96%
03:00 +5°C° 0 mm 2 m/S 744 mmHg 96%
04:00 +5°C° 0 mm 2 m/S 743 mmHg 96%
05:00 +5°C° 0 mm 2 m/S 743 mmHg 96%
06:00 +4°C° 0 mm 3 m/S 742 mmHg 95%
07:00 +4°C° 0.1 mm 3 m/S 742 mmHg 93%
08:00 +5°C° 0.1 mm 3 m/S 742 mmHg 91%
09:00 +5°C° 0.1 mm 3 m/S 742 mmHg 89%
10:00 +4°C° 0.7 mm 4 m/S 742 mmHg 91%
11:00 +2°C° 0.7 mm 5 m/S 743 mmHg 93%
12:00 +1°C° 0.7 mm 6 m/S 743 mmHg 96%
13:00 +2°C° 0.3 mm 6 m/S 744 mmHg 88%
14:00 +4°C° 0.3 mm 6 m/S 744 mmHg 81%
15:00 +5°C° 0.3 mm 6 m/S 744 mmHg 73%
16:00 +6°C° 0.2 mm 5 m/S 744 mmHg 73%
17:00 +6°C° 0.2 mm 4 m/S 745 mmHg 73%
18:00 +7°C° 0.2 mm 3 m/S 745 mmHg 73%
19:00 +5°C° 0.1 mm 3 m/S 745 mmHg 78%
20:00 +4°C° 0.1 mm 3 m/S 746 mmHg 83%
21:00 +3°C° 0.1 mm 3 m/S 746 mmHg 88%
22:00 +2°C° 0 mm 3 m/S 746 mmHg 88%
23:00 +1°C° 0 mm 4 m/S 747 mmHg 88%

26 April, Montag

Zeit Temperatur Niederschläge Wind Luftdruck Luftfeuchtigkeit
00:00 0°C° 0 mm 4 m/S 747 mmHg 88%
01:00 0°C° 0 mm 4 m/S 747 mmHg 88%
02:00 0°C° 0 mm 4 m/S 747 mmHg 88%
03:00 -1°C° 0 mm 4 m/S 748 mmHg 88%
04:00 0°C° 0 mm 4 m/S 748 mmHg 86%
05:00 +1°C° 0 mm 3 m/S 748 mmHg 84%
06:00 +2°C° 0 mm 3 m/S 748 mmHg 83%
07:00 +3°C° 0 mm 4 m/S 749 mmHg 75%
08:00 +5°C° 0 mm 4 m/S 749 mmHg 67%
09:00 +7°C° 0 mm 5 m/S 749 mmHg 60%
10:00 +8°C° 0 mm 5 m/S 749 mmHg 54%
11:00 +9°C° 0 mm 5 m/S 749 mmHg 49%
12:00 +9°C° 0 mm 5 m/S 749 mmHg 44%
13:00 +11°C° 0 mm 4 m/S 749 mmHg 42%
14:00 +11°C° 0 mm 4 m/S 749 mmHg 40%
15:00 +11°C° 0 mm 4 m/S 749 mmHg 38%
16:00 +11°C° 0 mm 3 m/S 749 mmHg 42%
17:00 +10°C° 0 mm 2 m/S 748 mmHg 47%
18:00 +10°C° 0 mm 1 m/S 748 mmHg 51%
19:00 +8°C° 0 mm 2 m/S 748 mmHg 55%
20:00 +7°C° 0 mm 2 m/S 748 mmHg 58%
21:00 +6°C° 0 mm 2 m/S 748 mmHg 62%
22:00 +5°C° 0 mm 2 m/S 748 mmHg 62%
23:00 +5°C° 0 mm 2 m/S 748 mmHg 63%
Mehr zeigen

Wir brauchen deine Erlaubnis

Meteoprog und unser Service Anbieter werden persönliche Daten aufbewahren, so wie Cookies, Geräte Bezeichnung oder ähnliche Technologien von deinem Gerät und Prozess, so wie Persönliche Daten Inhalte und Werbungen, genauso wie social Media und den Verkehr zu analysieren.

  • Aufbewahrung und/oder Zugang zu deiner Geräte Informationen.

    Cookies, Geräte Bezeichnung oder andere Informationen, können aufbewahrt oder Zugang zu deinem Gerät erhalten, für den Grund, der oben angegeben wird.

  • Personalisierte Werbung und Inhalte, Messungen, Einblick in das Publikum und Produkt Entwicklung.

    Werbungen und Inhalte können personalisiert werden, basierend auf ein Profil. Mehr Daten können besser personalisierte Werbungen und Inhalte hinzufügen. Werbung und Inhalte können gezeigt und gemessen werden. Einblicke über das Publikum, welche die Werbung gesehen haben und den Inhalt, können abgeleitet werden. So wie Daten können genutzt werden, um es zu verbessern oder die Benutzer Erfahrung zu verbessern das System und die Software.

Wenn du “Ich stimme zu” klickst, erlaubst du uns, die Cookies zu benutzen die Geräte Bezeichnung, den Web oder ähnliche Technologien zu benutzen. Deine Settings, können in deinem Gerät bei deinem Browser geändert werden.

Für den bestimmten Zweck, berechtigten Interessen beruhen darauf, mehr als auf den Inhalt. Du kannst mehr darüber in unseren Privaten und Cookie Politik lesen.